DW6763 Weather Reports


Display with metric or nautical units.
time (UTC)temp
F
wind
direction
speed
MPH
gust
MPH
rain 1hr
in
rain 24hr
in
rain mn
in
humidity
%
barometer
mb
20220627120830 80 235 1.0 2.0 0.00 0.00 0.00 88 1017.0
20220627120322 80 257 1.0 1.0 0.00 0.00 0.00 88 1017.0
20220627115814 80 257 0.0 2.0 0.00 0.00 0.00 88 1017.0
20220627115324 80 255 0.0 2.0 0.00 0.00 0.00 88 1017.1
20220627114816 80 298 0.0 2.0 0.00 0.00 0.00 88 1017.1
20220627114326 80 298 0.0 2.0 0.00 0.00 0.00 88 1017.0
20220627113818 80 298 0.0 1.0 0.00 0.00 0.00 88 1017.0
20220627113330 80 298 0.0 2.0 0.00 0.00 0.00 88 1017.0
20220627112826 80 298 0.0 2.0 0.00 0.00 0.00 88 1016.9
20220627112313 80 288 0.0 1.0 0.00 0.00 0.00 88 1016.9
20220627111826 80 263 0.0 1.0 0.00 0.00 0.00 88 1016.9
20220627111330 80 262 0.0 1.0 0.00 0.00 0.00 88 1016.8
20220627110817 80 262 0.0 1.0 0.00 0.00 0.00 88 1016.7
20220627110328 80 262 0.0 1.0 0.00 0.00 0.00 88 1016.8
20220627105818 80 262 0.0 1.0 0.00 0.00 0.00 88 1016.7
20220627105330 80 262 0.0 2.0 0.00 0.00 0.00 88 1016.7
20220627104821 80 262 1.0 2.0 0.00 0.00 0.00 88 1016.7
20220627104314 80 112 0.0 1.0 0.00 0.00 0.00 88 1016.6
20220627103826 80 112 0.0 1.0 0.00 0.00 0.00 88 1016.6
20220627103316 80 112 0.0 1.0 0.00 0.00 0.00 88 1016.6
20220627102820 80 112 0.0 1.0 0.00 0.00 0.00 87 1016.6
20220627102331 81 112 0.0 1.0 0.00 0.00 0.00 87 1016.7
20220627101814 81 112 0.0 1.0 0.00 0.00 0.00 87 1016.7
20220627101326 81 112 0.0 1.0 0.00 0.00 0.00 87 1016.5
20220627100817 81 112 0.0 1.0 0.00 0.00 0.00 87 1016.5
20220627100313 81 112 0.0 1.0 0.00 0.00 0.00 87 1016.7
20220627095823 81 112 0.0 2.0 0.00 0.00 0.00 87 1016.7
20220627095314 81 169 0.0 1.0 0.00 0.00 0.00 88 1016.7
20220627094827 80 169 0.0 1.0 0.00 0.00 0.00 88 1016.8
20220627094319 80 169 0.0 1.0 0.00 0.00 0.00 88 1016.8
20220627093830 80 169 0.0 0.0 0.00 0.00 0.00 88 1016.7
20220627093322 80 169 0.0 0.0 0.00 0.00 0.00 88 1016.8
20220627092813 80 169 0.0 1.0 0.00 0.00 0.00 88 1016.7
20220627092324 80 169 0.0 0.0 0.00 0.00 0.00 88 1016.7
20220627091819 80 169 0.0 0.0 0.00 0.00 0.00 88 1016.8
20220627091331 81 169 0.0 1.0 0.00 0.00 0.00 87 1016.8
20220627090822 81 169 0.0 1.0 0.00 0.00 0.00 87 1016.7
20220627090314 81 169 0.0 1.0 0.00 0.00 0.00 87 1016.7
20220627085826 81 169 0.0 1.0 0.00 0.00 0.00 87 1016.7
20220627085316 81 169 0.0 1.0 0.00 0.00 0.00 87 1016.7
20220627084828 81 169 0.0 1.0 0.00 0.00 0.00 86 1016.8
20220627084320 81 169 0.0 1.0 0.00 0.00 0.00 86 1016.8
20220627083816 81 169 0.0 1.0 0.00 0.00 0.00 86 1016.9
20220627083326 81 169 0.0 1.0 0.00 0.00 0.00 86 1016.9
20220627082816 81 169 0.0 1.0 0.00 0.00 0.00 86 1016.8
20220627082327 82 169 0.0 1.0 0.00 0.00 0.00 86 1016.8
20220627081815 82 169 0.0 1.0 0.00 0.00 0.00 85 1016.9
20220627081327 82 169 0.0 1.0 0.00 0.00 0.00 85 1017.2
20220627080813 82 169 0.0 1.0 0.00 0.00 0.00 84 1017.2
20220627080324 83 169 0.0 1.0 0.00 0.00 0.00 83 1017.3
20220627075819 83 169 0.0 1.0 0.00 0.00 0.00 82 1017.1
20220627075327 83 169 0.0 0.0 0.00 0.00 0.00 82 1017.1
20220627074818 83 169 0.0 1.0 0.00 0.00 0.00 82 1017.2
20220627074321 83 169 0.0 1.0 0.00 0.00 0.00 82 1017.3
20220627073814 83 169 0.0 1.0 0.00 0.00 0.00 82 1017.3
20220627073325 82 169 0.0 1.0 0.00 0.00 0.00 82 1017.2
20220627072816 83 169 0.0 1.0 0.00 0.00 0.00 82 1017.1
20220627072327 83 169 0.0 1.0 0.00 0.00 0.00 82 1017.0
20220627071817 82 169 0.0 1.0 0.00 0.00 0.00 82 1017.1
20220627071331 83 169 0.0 1.0 0.00 0.00 0.00 82 1017.0
20220627070823 83 169 0.0 0.0 0.00 0.00 0.00 82 1016.9
20220627070314 83 169 0.0 1.0 0.00 0.00 0.00 82 1016.9
20220627065827 83 169 0.0 1.0 0.00 0.00 0.00 81 1016.8
20220627065317 83 169 0.0 1.0 0.00 0.00 0.00 81 1016.7
20220627064829 83 169 0.0 3.0 0.00 0.00 0.00 81 1016.6
20220627064320 83 141 0.0 3.0 0.00 0.00 0.00 81 1016.5
20220627063831 83 105 0.0 2.0 0.00 0.00 0.00 80 1016.5
20220627063325 83 122 1.0 2.0 0.00 0.00 0.00 80 1016.6
20220627062817 83 162 1.0 1.0 0.00 0.00 0.00 80 1016.6
20220627062328 83 163 0.0 1.0 0.00 0.00 0.00 80 1016.7
20220627061818 83 163 0.0 1.0 0.00 0.00 0.00 79 1016.6
20220627061327 84 163 0.0 2.0 0.00 0.00 0.00 79 1016.7
20220627060817 84 163 0.0 3.0 0.00 0.00 0.00 78 1016.6
20220627060330 84 126 0.0 3.0 0.00 0.00 0.00 78 1016.6
20220627055822 84 122 0.0 2.0 0.00 0.00 0.00 77 1016.7
20220627055318 84 123 0.0 3.0 0.00 0.00 0.00 77 1016.9
20220627054829 84 122 0.0 3.0 0.00 0.00 0.00 77 1016.8
20220627054320 84 134 1.0 2.0 0.00 0.00 0.00 77 1016.6
20220627053832 84 133 1.0 3.0 0.00 0.00 0.00 76 1016.5
20220627053321 85 162 1.0 3.0 0.00 0.00 0.00 75 1016.5
20220627052812 85 198 1.0 3.0 0.00 0.00 0.00 74 1016.5
20220627052325 85 95 0.0 3.0 0.00 0.00 0.00 74 1016.6
20220627051816 85 92 1.0 4.0 0.00 0.00 0.00 73 1016.5
20220627051312 85 100 1.0 2.0 0.00 0.00 0.00 70 1016.5
20220627050823 85 101 0.0 1.0 0.00 0.00 0.00 70 1016.5
20220627050312 85 100 0.0 3.0 0.00 0.00 0.00 69 1016.5
20220627045822 85 100 1.0 3.0 0.00 0.00 0.00 69 1016.5
20220627045313 85 165 0.0 1.0 0.00 0.00 0.00 68 1016.6
20220627044824 85 166 0.0 2.0 0.00 0.00 0.00 68 1016.4
20220627044327 85 166 0.0 2.0 0.00 0.00 0.00 68 1016.4
20220627043819 85 110 1.0 2.0 0.00 0.00 0.00 67 1016.3
20220627043331 85 109 1.0 2.0 0.00 0.00 0.00 67 1016.3
20220627042827 85 110 1.0 3.0 0.00 0.00 0.00 66 1016.3
20220627042318 86 125 1.0 4.0 0.00 0.00 0.00 66 1016.2
20220627041829 86 126 2.0 4.0 0.00 0.00 0.00 65 1016.1
20220627041321 86 135 0.0 2.0 0.00 0.00 0.00 65 1016.0
20220627040833 86 135 0.0 2.0 0.00 0.00 0.00 64 1015.9
20220627040323 86 135 1.0 2.0 0.00 0.00 0.00 64 1015.8
20220627035815 87 108 0.0 3.0 0.00 0.00 0.00 63 1015.8
20220627035326 87 129 1.0 4.0 0.00 0.00 0.00 63 1015.9
20220627034819 87 138 2.0 4.0 0.00 0.00 0.00 63 1015.9
20220627034331 87 120 1.0 3.0 0.00 0.00 0.00 62 1015.8
20220627033822 87 121 1.0 4.0 0.00 0.00 0.00 62 1015.8
20220627033314 87 184 2.0 5.0 0.00 0.00 0.00 61 1015.7
20220627032826 87 160 1.0 5.0 0.00 0.00 0.00 61 1015.5
20220627032316 88 94 2.0 4.0 0.00 0.00 0.00 60 1015.6
20220627031827 88 102 1.0 5.0 0.00 0.00 0.00 60 1015.5
20220627031318 88 121 2.0 5.0 0.00 0.00 0.00 59 1015.3
20220627030822 88 217 2.0 5.0 0.00 0.00 0.00 59 1015.3
20220627030317 89 135 2.0 6.0 0.00 0.00 0.00 58 1015.3
20220627025829 89 198 2.0 6.0 0.00 0.00 0.00 58 1015.3
20220627025320 89 94 2.0 5.0 0.00 0.00 0.00 58 1015.2
20220627024812 89 295 1.0 5.0 0.00 0.00 0.00 58 1015.1
20220627024322 89 113 2.0 6.0 0.00 0.00 0.00 58 1015.1
20220627023813 90 208 2.0 7.0 0.00 0.00 0.00 59 1015.1
20220627023327 90 113 2.0 7.0 0.00 0.00 0.00 59 1015.0
20220627022819 90 152 2.0 3.0 0.00 0.00 0.00 59 1015.1
20220627022314 90 109 1.0 4.0 0.00 0.00 0.00 59 1015.1
20220627021826 90 100 2.0 4.0 0.00 0.00 0.00 58 1015.0
20220627021318 91 127 1.0 4.0 0.00 0.00 0.00 58 1014.9
20220627020824 91 135 2.0 4.0 0.00 0.00 0.00 57 1014.8
20220627020313 91 245 1.0 6.0 0.00 0.00 0.00 57 1014.7
20220627015826 91 74 1.0 6.0 0.00 0.00 0.00 57 1014.7
20220627015318 91 117 1.0 5.0 0.00 0.00 0.00 56 1014.6
20220627014828 92 161 2.0 6.0 0.00 0.00 0.00 56 1014.6
20220627014325 92 93 2.0 6.0 0.00 0.00 0.00 55 1014.5
20220627013814 92 123 2.0 6.0 0.00 0.00 0.00 55 1014.5
20220627013325 93 101 2.0 6.0 0.00 0.00 0.00 54 1014.4
20220627012817 93 116 3.0 6.0 0.00 0.00 0.00 54 1014.4
20220627012329 93 99 3.0 5.0 0.00 0.00 0.00 53 1014.4
20220627011819 93 153 2.0 5.0 0.00 0.00 0.00 52 1014.4
20220627011312 94 119 1.0 5.0 0.00 0.00 0.00 52 1014.3
20220627010824 94 141 2.0 6.0 0.00 0.00 0.00 52 1014.2
20220627010317 94 133 3.0 6.0 0.00 0.00 0.00 51 1014.2
20220627005830 95 117 3.0 6.0 0.00 0.00 0.00 51 1014.3
20220627005320 95 103 2.0 6.0 0.00 0.00 0.00 50 1014.2
20220627004832 95 103 1.0 5.0 0.00 0.00 0.00 50 1014.2
20220627004323 95 105 1.0 6.0 0.00 0.00 0.00 49 1014.1
20220627003815 96 126 2.0 8.0 0.00 0.00 0.00 48 1014.0
20220627003328 96 150 3.0 8.0 0.00 0.00 0.00 48 1014.0
20220627002816 96 127 3.0 6.0 0.00 0.00 0.00 47 1013.9
20220627002311 97 204 2.0 6.0 0.00 0.00 0.00 46 1013.8
20220627001823 97 58 3.0 5.0 0.00 0.00 0.00 46 1013.7
20220627001316 98 133 2.0 5.0 0.00 0.00 0.00 45 1013.7
20220627000320 98 90 2.0 5.0 0.00 0.00 0.00 44 1013.6
20220626235832 98 96 2.0 7.0 0.00 0.00 0.00 44 1013.5
20220626235315 99 174 4.0 8.0 0.00 0.00 0.00 43 1013.5
20220626234827 99 250 3.0 8.0 0.00 0.00 0.00 42 1013.5
20220626234315 101 139 4.0 8.0 0.00 0.00 0.00 40 1013.4
20220626233812 101 113 3.0 5.0 0.00 0.00 0.00 37 1013.3
20220626233324 101 123 2.0 5.0 0.00 0.00 0.00 33 1013.2
20220626232816 101 149 2.0 4.0 0.00 0.00 0.00 33 1013.3
20220626232326 102 135 1.0 3.0 0.00 0.00 0.00 33 1013.3
20220626231817 102 301 1.0 2.0 0.00 0.00 0.00 33 1013.3
20220626231328 102 255 1.0 2.0 0.00 0.00 0.00 33 1013.3
20220626230819 102 255 0.0 2.0 0.00 0.00 0.00 33 1013.3
20220626230331 102 255 1.0 3.0 0.00 0.00 0.00 33 1013.3
20220626225825 103 142 0.0 3.0 0.00 0.00 0.00 32 1013.4
20220626225317 104 101 1.0 3.0 0.00 0.00 0.00 31 1013.4
20220626224825 104 167 1.0 5.0 0.00 0.00 0.00 31 1013.4
20220626224318 105 184 2.0 5.0 0.00 0.00 0.00 30 1013.4
20220626223830 105 141 2.0 4.0 0.00 0.00 0.00 31 1013.4
20220626223323 105 167 2.0 5.0 0.00 0.00 0.00 31 1013.5
20220626222815 104 297 3.0 5.0 0.00 0.00 0.00 31 1013.5
20220626222326 104 141 1.0 2.0 0.00 0.00 0.00 32 1013.5
20220626221817 104 141 1.0 3.0 0.00 0.00 0.00 31 1013.6
20220626221329 104 141 0.0 4.0 0.00 0.00 0.00 30 1013.7
20220626220819 105 121 2.0 4.0 0.00 0.00 0.00 30 1013.8
20220626220331 105 125 2.0 4.0 0.00 0.00 0.00 30 1013.8
20220626215822 105 123 2.0 4.0 0.00 0.00 0.00 31 1013.9
20220626215314 105 100 1.0 3.0 0.00 0.00 0.00 31 1013.9
20220626214827 105 100 1.0 5.0 0.00 0.00 0.00 31 1014.0
20220626214316 104 120 2.0 5.0 0.00 0.00 0.00 32 1014.1
20220626213813 104 134 1.0 6.0 0.00 0.00 0.00 32 1014.2
20220626213326 104 92 4.0 6.0 0.00 0.00 0.00 31 1014.2
20220626212815 104 307 2.0 4.0 0.00 0.00 0.00 32 1014.2
20220626212326 104 304 1.0 5.0 0.00 0.00 0.00 32 1014.2
20220626211819 105 293 2.0 4.0 0.00 0.00 0.00 32 1014.3
20220626211332 105 121 1.0 5.0 0.00 0.00 0.00 31 1014.3
20220626210822 105 104 3.0 5.0 0.00 0.00 0.00 30 1014.3
20220626210331 105 143 1.0 3.0 0.00 0.00 0.00 32 1014.3
20220626205823 105 150 1.0 2.0 0.00 0.00 0.00 32 1014.4
20220626205319 104 150 1.0 2.0 0.00 0.00 0.00 32 1014.5
20220626204830 104 150 1.0 7.0 0.00 0.00 0.00 31 1014.5
20220626204320 104 150 2.0 7.0 0.00 0.00 0.00 32 1014.6
20220626203830 104 315 2.0 8.0 0.00 0.00 0.00 33 1014.7
20220626203322 104 321 3.0 8.0 0.00 0.00 0.00 33 1014.8
20220626202831 104 256 1.0 4.0 0.00 0.00 0.00 33 1014.8
20220626202322 103 136 1.0 2.0 0.00 0.00 0.00 34 1014.8
20220626201812 103 266 1.0 5.0 0.00 0.00 0.00 33 1014.9
20220626201329 104 314 2.0 5.0 0.00 0.00 0.00 32 1015.0
20220626200818 105 214 1.0 5.0 0.00 0.00 0.00 31 1015.0
20220626200329 105 295 2.0 5.0 0.00 0.00 0.00 30 1015.0
20220626195819 105 127 2.0 5.0 0.00 0.00 0.00 31 1015.0
20220626195331 104 128 1.0 5.0 0.00 0.00 0.00 30 1015.0
20220626194824 104 293 1.0 6.0 0.00 0.00 0.00 31 1015.1
20220626194316 104 281 2.0 6.0 0.00 0.00 0.00 31 1015.3
20220626193827 103 140 1.0 6.0 0.00 0.00 0.00 32 1015.4
20220626193323 103 130 2.0 6.0 0.00 0.00 0.00 31 1015.4
20220626192816 103 172 4.0 6.0 0.00 0.00 0.00 32 1015.6
20220626192324 103 107 2.0 5.0 0.00 0.00 0.00 33 1015.6
20220626191816 104 314 1.0 3.0 0.00 0.00 0.00 34 1015.6
20220626191326 103 250 1.0 4.0 0.00 0.00 0.00 34 1015.6
20220626190819 104 291 2.0 3.0 0.00 0.00 0.00 33 1015.8
20220626190331 103 339 1.0 3.0 0.00 0.00 0.00 34 1015.7
20220626185822 103 280 2.0 3.0 0.00 0.00 0.00 34 1015.9
20220626185316 103 288 0.0 2.0 0.00 0.00 0.00 37 1015.9
20220626184826 102 267 1.0 3.0 0.00 0.00 0.00 35 1015.9
20220626184319 102 150 1.0 3.0 0.00 0.00 0.00 34 1016.0
20220626183830 102 127 1.0 3.0 0.00 0.00 0.00 35 1016.0
20220626183322 102 110 2.0 3.0 0.00 0.00 0.00 35 1016.1
20220626182813 102 140 1.0 4.0 0.00 0.00 0.00 35 1016.1
20220626182324 103 191 2.0 5.0 0.00 0.00 0.00 38 1016.1
20220626181814 102 39 1.0 3.0 0.00 0.00 0.00 38 1016.1
20220626181326 101 125 1.0 3.0 0.00 0.00 0.00 39 1016.2
20220626180823 101 125 1.0 3.0 0.00 0.00 0.00 38 1016.2
20220626180314 101 137 1.0 5.0 0.00 0.00 0.00 39 1016.3
20220626175827 101 43 2.0 6.0 0.00 0.00 0.00 40 1016.4
20220626175318 100 341 1.0 5.0 0.00 0.00 0.00 40 1016.5
20220626174831 99 260 1.0 5.0 0.00 0.00 0.00 43 1016.6
20220626174320 99 318 1.0 4.0 0.00 0.00 0.00 40 1016.6
20220626173813 100 303 1.0 3.0 0.00 0.00 0.00 41 1016.7
20220626173325 99 128 1.0 6.0 0.00 0.00 0.00 41 1016.7
20220626172820 100 134 2.0 6.0 0.00 0.00 0.00 40 1016.8
20220626172312 100 135 2.0 3.0 0.00 0.00 0.00 41 1016.8
20220626171822 99 120 0.0 3.0 0.00 0.00 0.00 42 1016.8
20220626171314 99 131 2.0 4.0 0.00 0.00 0.00 42 1016.7
20220626170814 99 91 1.0 4.0 0.00 0.00 0.00 46 1016.8
20220626170323 98 295 2.0 3.0 0.00 0.00 0.00 47 1016.8
20220626165815 98 291 1.0 2.0 0.00 0.00 0.00 47 1016.9
20220626165328 98 95 2.0 3.0 0.00 0.00 0.00 49 1016.8
20220626164822 98 233 1.0 4.0 0.00 0.00 0.00 48 1016.8
20220626164315 98 152 1.0 3.0 0.00 0.00 0.00 48 1016.9
20220626163827 98 298 1.0 2.0 0.00 0.00 0.00 49 1016.9
20220626163317 98 115 1.0 4.0 0.00 0.00 0.00 49 1017.0
20220626162827 97 131 1.0 4.0 0.00 0.00 0.00 49 1017.0
20220626162318 96 127 1.0 3.0 0.00 0.00 0.00 49 1017.1
20220626161811 96 260 1.0 2.0 0.00 0.00 0.00 50 1017.1
20220626161323 96 319 0.0 3.0 0.00 0.00 0.00 49 1017.1
20220626160818 96 284 1.0 3.0 0.00 0.00 0.00 50 1017.2
20220626160329 96 96 1.0 3.0 0.00 0.00 0.00 54 1017.2
20220626155819 95 307 0.0 3.0 0.00 0.00 0.00 56 1017.3
20220626155330 95 84 1.0 3.0 0.00 0.00 0.00 56 1017.3
20220626154821 94 260 1.0 3.0 0.00 0.00 0.00 57 1017.2
20220626154313 94 336 1.0 4.0 0.00 0.00 0.00 58 1017.3
20220626153823 94 276 1.0 2.0 0.00 0.00 0.00 59 1017.1
20220626153315 94 207 2.0 2.0 0.00 0.00 0.00 59 1017.2
20220626152824 93 95 1.0 2.0 0.00 0.00 0.00 61 1017.3
20220626152316 92 94 1.0 3.0 0.00 0.00 0.00 60 1017.3
20220626151829 92 109 1.0 3.0 0.00 0.00 0.00 61 1017.3
20220626151318 92 259 0.0 2.0 0.00 0.00 0.00 62 1017.5
20220626150812 92 259 1.0 4.0 0.00 0.00 0.00 63 1017.4
20220626150323 92 257 1.0 3.0 0.00 0.00 0.00 63 1017.4
20220626145813 91 106 1.0 3.0 0.00 0.00 0.00 65 1017.3
20220626145323 91 264 0.0 3.0 0.00 0.00 0.00 66 1017.2
20220626144816 91 99 1.0 3.0 0.00 0.00 0.00 65 1017.3
20220626144332 90 105 0.0 3.0 0.00 0.00 0.00 67 1017.2
20220626143823 90 135 1.0 3.0 0.00 0.00 0.00 67 1017.1
20220626143315 90 118 1.0 3.0 0.00 0.00 0.00 68 1017.1
20220626142826 90 141 1.0 3.0 0.00 0.00 0.00 69 1017.1
20220626142317 89 214 0.0 2.0 0.00 0.00 0.00 71 1017.0
20220626141821 89 242 0.0 2.0 0.00 0.00 0.00 71 1017.1
20220626141312 88 63 1.0 2.0 0.00 0.00 0.00 74 1017.1
20220626140823 87 295 1.0 2.0 0.00 0.00 0.00 76 1017.1
20220626140318 87 304 1.0 2.0 0.00 0.00 0.00 76 1017.0
20220626135829 87 283 0.0 3.0 0.00 0.00 0.00 77 1017.1
20220626135320 86 276 0.0 3.0 0.00 0.00 0.00 77 1017.0
20220626134832 86 271 1.0 3.0 0.00 0.00 0.00 78 1017.0
20220626134322 86 269 1.0 3.0 0.00 0.00 0.00 79 1017.0
20220626133811 86 319 1.0 2.0 0.00 0.00 0.00 79 1017.0
20220626133323 86 280 1.0 2.0 0.00 0.00 0.00 81 1017.0
20220626132815 85 134 0.0 1.0 0.00 0.00 0.00 82 1017.1
20220626132311 84 134 0.0 1.0 0.00 0.00 0.00 84 1017.1
20220626131823 83 134 0.0 1.0 0.00 0.00 0.00 84 1016.9
20220626131313 82 134 0.0 2.0 0.00 0.00 0.00 86 1017.0
20220626130817 82 134 0.0 2.0 0.00 0.00 0.00 87 1016.9
20220626130329 81 134 0.0 1.0 0.00 0.00 0.00 88 1016.9
20220626125820 80 134 0.0 2.0 0.00 0.00 0.00 88 1016.8
20220626125331 80 134 1.0 2.0 0.00 0.00 0.00 88 1016.7
20220626124821 80 134 0.0 1.0 0.00 0.00 0.00 90 1016.6
20220626124313 79 134 0.0 1.0 0.00 0.00 0.00 90 1016.5
20220626123827 78 134 0.0 1.0 0.00 0.00 0.00 90 1016.6
20220626123316 77 134 0.0 1.0 0.00 0.00 0.00 90 1016.5
20220626122829 76 134 0.0 1.0 0.00 0.00 0.00 90 1016.5
20220626122320 76 134 0.0 1.0 0.00 0.00 0.00 90 1016.5
20220626121811 75 134 0.0 1.0 0.00 0.00 0.00 90 1016.5
20220626121323 75 134 0.0 0.0 0.00 0.00 0.00 90 1016.5